Regional Weather Roundup
Issued by NWS

Home | Current Version | Previous Version | Graphics & Text | Print | Product List | Glossary On
Versions: 1 2 3 4 5 6 7 8 9 10 11 12 13 14 15 16 17 18 19 20 21 22 23 24 25 26 27
000
ASUS45 KCYS 272010
RWRWY

WYOMING REGIONAL WEATHER ROUNDUP
NATIONAL WEATHER SERVICE CHEYENNE WY
200 PM MDT SAT AUG 27 2016

NOTE:  "FAIR" INDICATES FEW OR NO CLOUDS BELOW 12,000 FEET
WITH NO SIGNIFICANT WEATHER AND/OR OBSTRUCTIONS TO VISIBILITY.

WYZ001-272100-
YELLOWSTONE NATIONAL PARK

CITY           SKY/WX    TMP DP  RH WIND       PRES   REMARKS
LK YELLOWSTONE   N/A     63  23  21 W9G22     30.20S
W YELLOWSTONE  NOT AVBL

$$
WYZ002>013-054>058-071-098>099-272100-
NORTHERN WYOMING

CITY           SKY/WX    TMP DP  RH WIND       PRES   REMARKS
JACKSON        SUNNY     72  25  17 SW7G17    30.12F
CODY           FAIR      72  34  25 SW5       29.98F
GREYBULL       FAIR      80  30  16 VRB3      29.92F
WORLAND        FAIR      83  29  14 W7        29.92F
SHERIDAN       FAIR      83  38  20 NE6       29.90F
BUFFALO        FAIR      81  29  15 W10       29.97R
GILLETTE       FAIR      82  30  15 VRB7      29.93F
HULETT         FAIR      79  43  27 SW8G16    29.97S
NEWCASTLE      FAIR      73  43  33 S7G21     30.00S

$$
WYZ014>020-022>026-101>103-272100-
CENTRAL WYOMING

CITY           SKY/WX    TMP DP  RH WIND       PRES   REMARKS
BIG PINEY      FAIR      71  27  19 CALM      30.17F
PINEDALE       FAIR      68  25  19 NW8       30.19S
DUBOIS         FAIR      68  18  14 W18G29    30.13S
LANDER         FAIR      79  32  18 N5        30.02F
RIVERTON       FAIR      76  25  15 SE5       30.04F
CASPER         FAIR      78  35  21 SW14G24   30.03F
DOUGLAS        FAIR      82  31  15 W18G25    30.03F

$$
WYZ021-027>030-104>119-272100-
SOUTHERN WYOMING

CITY           SKY/WX    TMP DP  RH WIND       PRES   REMARKS
EVANSTON       FAIR      75  22  13 SW20G25   30.20F
FORT BRIDGER   FAIR      77  22  13 W17G25    30.22F
ROCK SPRINGS   FAIR      74  21  13 W15G24    30.18F
DIXON          FAIR      76  25  15 S13       30.21F
RAWLINS        FAIR      76  28  17 SW20G26   30.17F
SARATOGA       FAIR      72  28  20 W16G29    30.22S
LARAMIE        FAIR      73  26  17 S12G24    30.18F
CHEYENNE       FAIR      77  29  17 SW10G20   30.12F
TORRINGTON     FAIR      86  39  19 VRB6G21   29.99F
PINE BLUFFS    FAIR      81  32  17 S7        30.08F

$$




USA.gov is the U.S. government's official web portal to all federal, state and local government web resources and services.